TimeCDT,TemperatureF,Dew PointF,Humidity,Sea Level PressureIn,VisibilityMPH,Wind Direction,Wind SpeedMPH,Gust SpeedMPH,PrecipitationIn,Events,Conditions,WindDirDegrees,DateUTC
12:53 AM,61.0,44.1,54,29.97,10.0,East,3.5,-,N/A,,Clear,80,2013-03-11 05:53:00
1:53 AM,60.1,45.0,57,29.96,10.0,Variable,3.5,-,N/A,,Clear,0,2013-03-11 06:53:00
2:53 AM,60.1,45.0,57,29.96,10.0,East,5.8,-,N/A,,Overcast,100,2013-03-11 07:53:00
3:53 AM,59.0,45.0,60,29.95,10.0,SSE,10.4,16.1,N/A,,Clear,150,2013-03-11 08:53:00
4:53 AM,59.0,46.0,62,29.92,10.0,SE,10.4,24.2,N/A,,Clear,130,2013-03-11 09:53:00
5:53 AM,59.0,46.9,64,29.90,10.0,Variable,5.8,20.7,N/A,,Clear,0,2013-03-11 10:53:00
6:53 AM,60.1,48.0,64,29.89,10.0,SE,11.5,23.0,N/A,,Partly Cloudy,140,2013-03-11 11:53:00
7:53 AM,60.1,48.9,67,29.88,10.0,South,10.4,29.9,N/A,,Clear,170,2013-03-11 12:53:00
8:53 AM,62.1,50.0,65,29.88,10.0,South,19.6,35.7,N/A,,Scattered Clouds,170,2013-03-11 13:53:00
9:53 AM,63.0,51.1,65,29.88,10.0,SSE,13.8,27.6,N/A,,Mostly Cloudy,160,2013-03-11 14:53:00
10:53 AM,63.0,52.0,67,29.86,10.0,South,17.3,25.3,N/A,,Overcast,180,2013-03-11 15:53:00
11:49 AM,59.0,55.4,88,29.86,10.0,West,5.8,-,0.01,,Overcast,270,2013-03-11 16:49:00
11:53 AM,59.0,55.0,87,29.86,6.0,WSW,4.6,-,0.02,Rain,Light Rain,240,2013-03-11 16:53:00
12:05 PM,59.0,55.4,88,29.87,2.5,West,10.4,-,0.04,Rain,Light Rain,270,2013-03-11 17:05:00
12:14 PM,57.2,55.4,94,29.88,6.0,West,11.5,-,0.05,Rain,Light Rain,270,2013-03-11 17:14:00
12:25 PM,57.2,55.4,94,29.88,1.5,West,13.8,19.6,0.13,Rain,Heavy Rain,270,2013-03-11 17:25:00
12:53 PM,55.9,53.1,90,29.88,2.0,West,12.7,21.9,0.32,Rain,Rain,270,2013-03-11 17:53:00
1:02 PM,55.4,51.8,88,29.88,5.0,West,12.7,18.4,0.01,Rain,Light Rain,260,2013-03-11 18:02:00
1:53 PM,55.0,53.1,93,29.88,3.0,South,3.5,-,0.09,Rain,Light Rain,180,2013-03-11 18:53:00
2:00 PM,55.4,53.6,94,29.87,2.0,Calm,Calm,-,0.02,Rain,Rain,0,2013-03-11 19:00:00
2:15 PM,55.4,53.6,94,29.87,4.0,SSW,4.6,-,0.05,Rain,Light Rain,210,2013-03-11 19:15:00
2:53 PM,55.0,53.1,93,29.85,2.5,Calm,Calm,-,0.13,Rain,Light Rain,0,2013-03-11 19:53:00
3:23 PM,55.4,53.6,94,29.83,1.8,Calm,Calm,-,0.09,Rain,Light Rain,0,2013-03-11 20:23:00
3:30 PM,53.6,53.6,100,29.83,2.5,South,3.5,-,0.11,Rain,Light Rain,180,2013-03-11 20:30:00
3:51 PM,53.6,51.8,94,29.83,2.5,SSW,3.5,-,0.17,Rain,Light Rain,210,2013-03-11 20:51:00
4:18 PM,53.6,53.6,100,29.84,4.0,Calm,Calm,-,0.06,Rain,Light Rain,0,2013-03-11 21:18:00
4:25 PM,53.6,53.6,100,29.84,3.0,West,6.9,-,0.08,Rain,Light Rain,270,2013-03-11 21:25:00
4:34 PM,53.6,53.6,100,29.83,2.0,West,4.6,-,0.10,Rain,Light Rain,260,2013-03-11 21:34:00
4:38 PM,53.6,53.6,100,29.84,3.0,West,8.1,-,0.11,Rain,Light Rain,260,2013-03-11 21:38:00
4:48 PM,53.6,51.8,94,29.84,2.5,WSW,5.8,-,0.14,Rain,Light Rain,250,2013-03-11 21:48:00
4:57 PM,53.6,51.8,94,29.83,1.8,WSW,4.6,-,0.02,Rain,Rain,250,2013-03-11 21:57:00
5:02 PM,53.6,51.8,94,29.82,2.0,West,4.6,-,0.03,Rain,Light Rain,270,2013-03-11 22:02:00
5:08 PM,53.6,51.8,94,29.82,4.0,West,4.6,-,0.04,Rain,Light Rain,260,2013-03-11 22:08:00
5:17 PM,51.8,50.0,94,29.84,6.0,West,16.1,20.7,0.05,Rain,Light Rain,270,2013-03-11 22:17:00
6:45 PM,48.2,46.4,93,29.88,10.0,West,9.2,-,0.00,,Overcast,270,2013-03-11 23:45:00
6:53 PM,48.9,46.0,90,29.90,10.0,West,6.9,-,0.00,,Overcast,260,2013-03-11 23:53:00
7:13 PM,48.2,44.6,87,29.89,10.0,West,6.9,-,0.00,,Overcast,260,2013-03-12 00:13:00
7:31 PM,48.2,44.6,87,29.89,10.0,West,4.6,-,0.00,,Overcast,270,2013-03-12 00:31:00
7:41 PM,48.2,44.6,87,29.90,10.0,West,8.1,-,0.00,,Overcast,260,2013-03-12 00:41:00
7:53 PM,46.9,43.0,86,29.91,10.0,West,9.2,-,0.00,,Overcast,280,2013-03-12 00:53:00
8:13 PM,46.4,42.8,87,29.90,10.0,West,8.1,-,N/A,,Overcast,260,2013-03-12 01:13:00
8:53 PM,46.0,42.1,86,29.93,10.0,WSW,8.1,-,N/A,,Overcast,240,2013-03-12 01:53:00
9:53 PM,46.0,42.1,86,29.94,10.0,West,4.6,-,N/A,,Overcast,270,2013-03-12 02:53:00
10:39 PM,44.6,37.4,76,29.94,10.0,Variable,5.8,-,N/A,,Scattered Clouds,0,2013-03-12 03:39:00
10:53 PM,45.0,37.0,74,29.95,10.0,West,6.9,-,N/A,,Partly Cloudy,270,2013-03-12 03:53:00
11:53 PM,42.1,36.0,79,29.95,10.0,WSW,4.6,-,N/A,,Clear,250,2013-03-12 04:53:00